User: anonymous   Login
Location: Unspecified
(0.0000°N, 0.0000°E)
Time: 21:35:55
(UTC+00:00)
Language:

ICEYE-X2 - Orbit

View from above orbital plane
View from above orbital plane
View from above satellite
View from above satellite

Ground track
Ground track

The orbit data is extracted from the following two-line orbital elements,

1 43761U 18099D   19047.91707932 -.00000246 +00000-0 -17164-4 0  9994
2 43761 097.7608 121.3325 0014849 018.7299 341.4465 14.94971133011235
Epoch (UTC): 16 February 2019 22:00:35
Eccentricity: 0.0014849
inclination: 97.7608°
perigee height: 572 km
apogee height: 593 km
right ascension of ascending node: 121.3325°
argument of perigee: 18.7299°
revolutions per day: 14.94971133
mean anomaly at epoch: 341.4465°
orbit number at epoch: 1123

The dashed part of the orbit path shows where the satellite is in the earth's shadow,  

DLR